TimeMST,TemperatureF,Dew PointF,Humidity,Sea Level PressureIn,VisibilityMPH,Wind Direction,Wind SpeedMPH,Gust SpeedMPH,PrecipitationIn,Events,Conditions,WindDirDegrees,DateUTC
3:53 AM,10.9,1.9,67,30.13,10.0,West,21.9,29.9,N/A,,Clear,260,2012-12-10 10:53:00
4:53 AM,14.0,1.9,59,30.09,10.0,WSW,27.6,36.8,N/A,,Mostly Cloudy,250,2012-12-10 11:53:00
5:53 AM,12.9,3.0,65,30.12,4.0,WSW,28.8,38.0,0.00,Snow,Light Snow,250,2012-12-10 12:53:00
6:24 AM,12.2,6.8,79,29.91,3.0,WSW,20.7,34.5,0.00,Snow,Light Snow,250,2012-12-10 13:24:00
6:53 AM,14.0,6.1,71,30.12,2.5,WSW,26.5,33.4,0.00,Snow,Light Snow,240,2012-12-10 13:53:00
7:03 AM,15.8,6.8,68,29.89,1.5,WSW,25.3,39.1,0.00,Snow,Light Snow,250,2012-12-10 14:03:00
7:27 AM,14.0,6.8,73,29.87,2.0,WSW,31.1,42.6,0.00,Snow,Light Snow,240,2012-12-10 14:27:00
7:53 AM,14.0,6.1,71,30.10,10.0,WSW,29.9,41.4,0.00,,Mostly Cloudy,250,2012-12-10 14:53:00
8:15 AM,15.8,6.8,68,29.88,10.0,WSW,31.1,43.7,N/A,,Mostly Cloudy,250,2012-12-10 15:15:00
8:50 AM,15.8,6.8,68,29.86,10.0,WSW,26.5,38.0,N/A,,Partly Cloudy,250,2012-12-10 15:50:00
8:53 AM,16.0,6.1,65,30.07,10.0,WSW,29.9,42.6,N/A,,Partly Cloudy,250,2012-12-10 15:53:00
9:53 AM,18.0,9.0,68,30.06,10.0,WSW,31.1,41.4,N/A,,Clear,240,2012-12-10 16:53:00
11:09 AM,21.2,12.2,68,29.87,10.0,WSW,26.5,41.4,N/A,,Mostly Cloudy,250,2012-12-10 18:09:00
11:17 AM,21.2,12.2,68,29.86,10.0,WSW,29.9,38.0,N/A,,Mostly Cloudy,240,2012-12-10 18:17:00
11:53 AM,21.9,12.0,66,30.00,10.0,WSW,29.9,41.4,N/A,,Overcast,240,2012-12-10 18:53:00
12:53 PM,21.9,14.0,72,30.00,10.0,WSW,18.4,28.8,0.00,,Overcast,240,2012-12-10 19:53:00
1:31 PM,21.2,15.8,80,29.83,2.0,WSW,19.6,-,0.00,Snow,Light Snow,240,2012-12-10 20:31:00
1:40 PM,21.2,15.8,80,29.83,1.2,WSW,25.3,31.1,0.00,Snow,Light Snow,240,2012-12-10 20:40:00
1:53 PM,23.0,17.1,78,30.00,1.2,WSW,24.2,29.9,0.00,Snow,Light Snow,250,2012-12-10 20:53:00
2:17 PM,21.2,17.6,86,29.83,3.0,WSW,19.6,27.6,0.00,Snow,Light Snow,240,2012-12-10 21:17:00
2:28 PM,21.2,17.6,86,29.83,7.0,WSW,13.8,-,0.00,Snow,Light Snow,240,2012-12-10 21:28:00
2:53 PM,23.0,16.0,74,29.99,10.0,WSW,11.5,-,0.00,,Overcast,240,2012-12-10 21:53:00
3:53 PM,26.1,12.0,55,29.97,10.0,West,19.6,25.3,N/A,,Overcast,280,2012-12-10 22:53:00
4:53 PM,23.0,10.9,60,29.98,10.0,West,15.0,24.2,N/A,,Mostly Cloudy,280,2012-12-10 23:53:00
5:53 PM,18.0,10.0,71,30.04,10.0,NW,9.2,-,0.00,,Scattered Clouds,310,2012-12-11 00:53:00
6:53 PM,12.0,7.0,80,30.10,10.0,NNW,8.1,-,0.00,,Partly Cloudy,330,2012-12-11 01:53:00
7:53 PM,10.9,7.0,84,30.12,10.0,Calm,Calm,-,0.00,,Mostly Cloudy,0,2012-12-11 02:53:00
8:53 PM,7.0,5.0,92,30.13,10.0,Calm,Calm,-,0.00,,Clear,0,2012-12-11 03:53:00
9:53 PM,8.1,3.9,83,30.13,10.0,West,5.8,-,0.00,,Partly Cloudy,260,2012-12-11 04:53:00
10:53 PM,3.9,-0.0,84,30.14,10.0,Calm,Calm,-,0.00,,Clear,0,2012-12-11 05:53:00
11:53 PM,-0.9,-6.0,79,30.16,10.0,Calm,Calm,-,N/A,,Clear,0,2012-12-11 06:53:00